| time (UTC) | temp F | wind direction | speed MPH | gust MPH | rain 1hr in | rain 24hr in | rain mn in | humidity % | barometer mb |
| 20260505080454 | 88 | 68 | 12.0 | 16.0 | 0.00 | 0.00 | 0.00 | 72 | 1011.2 |
| 20260505075954 | 87 | 45 | 8.0 | 11.0 | 0.00 | 0.00 | 0.00 | 75 | 1011.2 |
| 20260505075453 | 88 | 68 | 10.0 | 13.0 | 0.00 | 0.00 | 0.00 | 73 | 1011.2 |
| 20260505074953 | 88 | 45 | 10.0 | 12.0 | 0.00 | 0.00 | 0.00 | 73 | 1011.2 |
| 20260505074453 | 89 | 113 | 9.0 | 11.0 | 0.00 | 0.00 | 0.00 | 72 | 1011.5 |
| 20260505073953 | 89 | 113 | 6.0 | 9.0 | 0.00 | 0.00 | 0.00 | 71 | 1011.5 |
| 20260505073454 | 89 | 113 | 7.0 | 9.0 | 0.00 | 0.00 | 0.00 | 72 | 1011.2 |
| 20260505072954 | 90 | 90 | 4.0 | 5.0 | 0.00 | 0.00 | 0.00 | 69 | 1011.5 |
| 20260505072453 | 90 | 90 | 6.0 | 7.0 | 0.00 | 0.00 | 0.00 | 70 | 1011.2 |
| 20260505071954 | 90 | 113 | 8.0 | 10.0 | 0.00 | 0.00 | 0.00 | 70 | 1011.5 |
| 20260505071454 | 90 | 68 | 8.0 | 10.0 | 0.00 | 0.00 | 0.00 | 69 | 1011.5 |
| 20260505070953 | 90 | 90 | 6.0 | 7.0 | 0.00 | 0.00 | 0.00 | 70 | 1011.5 |
| 20260505070456 | 90 | 113 | 5.0 | 7.0 | 0.00 | 0.00 | 0.00 | 68 | 1011.5 |
| 20260505065953 | 89 | 90 | 8.0 | 12.0 | 0.00 | 0.00 | 0.00 | 67 | 1011.5 |
| 20260505065453 | 90 | 45 | 4.0 | 5.0 | 0.00 | 0.00 | 0.00 | 71 | 1011.5 |
| 20260505064954 | 90 | 68 | 9.0 | 13.0 | 0.00 | 0.00 | 0.00 | 71 | 1011.5 |
| 20260505064454 | 89 | 68 | 9.0 | 12.0 | 0.00 | 0.00 | 0.00 | 73 | 1011.5 |
| 20260505063954 | 89 | 45 | 9.0 | 16.0 | 0.00 | 0.00 | 0.00 | 72 | 1011.5 |
| 20260505063453 | 89 | 68 | 10.0 | 12.0 | 0.00 | 0.00 | 0.00 | 72 | 1011.9 |
| 20260505062953 | 90 | 113 | 5.0 | 7.0 | 0.00 | 0.00 | 0.00 | 70 | 1011.9 |
| 20260505062453 | 90 | 90 | 10.0 | 14.0 | 0.00 | 0.00 | 0.00 | 70 | 1011.9 |
| 20260505061953 | 90 | 90 | 9.0 | 11.0 | 0.00 | 0.00 | 0.00 | 71 | 1011.9 |
| 20260505061453 | 91 | 68 | 5.0 | 7.0 | 0.00 | 0.00 | 0.00 | 68 | 1011.9 |
| 20260505060954 | 90 | 68 | 6.0 | 7.0 | 0.00 | 0.00 | 0.00 | 69 | 1011.9 |
| 20260505060453 | 91 | 68 | 8.0 | 11.0 | 0.00 | 0.00 | 0.00 | 70 | 1011.9 |
| 20260505055954 | 90 | 90 | 8.0 | 11.0 | 0.00 | 0.00 | 0.00 | 71 | 1011.9 |
| 20260505055453 | 90 | 68 | 9.0 | 11.0 | 0.00 | 0.00 | 0.00 | 69 | 1011.9 |
| 20260505054955 | 91 | 90 | 2.0 | 3.0 | 0.00 | 0.00 | 0.00 | 70 | 1011.9 |
| 20260505054454 | 91 | 68 | 11.0 | 14.0 | 0.00 | 0.00 | 0.00 | 68 | 1012.2 |
| 20260505053953 | 90 | 113 | 6.0 | 8.0 | 0.00 | 0.00 | 0.00 | 69 | 1012.2 |
| 20260505053453 | 91 | 45 | 6.0 | 7.0 | 0.00 | 0.00 | 0.00 | 68 | 1012.2 |
| 20260505052953 | 90 | 68 | 7.0 | 10.0 | 0.00 | 0.00 | 0.00 | 69 | 1012.2 |
| 20260505052454 | 89 | 68 | 8.0 | 10.0 | 0.00 | 0.00 | 0.00 | 71 | 1012.2 |
| 20260505051953 | 89 | 90 | 10.0 | 12.0 | 0.00 | 0.00 | 0.00 | 71 | 1012.2 |
| 20260505051454 | 90 | 90 | 9.0 | 13.0 | 0.00 | 0.00 | 0.00 | 70 | 1012.5 |
| 20260505050953 | 91 | 68 | 6.0 | 9.0 | 0.00 | 0.00 | 0.00 | 69 | 1012.5 |
| 20260505050453 | 90 | 135 | 4.0 | 5.0 | 0.00 | 0.00 | 0.00 | 70 | 1012.5 |
| 20260505041453 | 91 | 90 | 5.0 | 7.0 | 0.00 | 0.00 | 0.00 | 71 | 1013.2 |
| 20260505040954 | 90 | 90 | 1.0 | 2.0 | 0.00 | 0.00 | 0.00 | 69 | 1013.5 |
| 20260505040453 | 92 | 90 | 3.0 | 4.0 | 0.00 | 0.00 | 0.00 | 67 | 1013.5 |
| 20260505035953 | 91 | 23 | 4.0 | 5.0 | 0.00 | 0.00 | 0.00 | 71 | 1013.5 |
| 20260505035453 | 91 | 68 | 3.0 | 5.0 | 0.00 | 0.00 | 0.00 | 70 | 1013.5 |
| 20260505034953 | 91 | 90 | 2.0 | 3.0 | 0.00 | 0.00 | 0.00 | 70 | 1013.5 |
| 20260505034454 | 90 | 90 | 3.0 | 5.0 | 0.00 | 0.00 | 0.00 | 74 | 1013.5 |
| 20260505033953 | 90 | 68 | 3.0 | 3.0 | 0.00 | 0.00 | 0.00 | 72 | 1013.5 |
| 20260505033453 | 90 | 45 | 3.0 | 4.0 | 0.00 | 0.00 | 0.00 | 73 | 1013.5 |
| 20260505032953 | 88 | 90 | 5.0 | 7.0 | 0.00 | 0.00 | 0.00 | 74 | 1013.5 |
| 20260505032454 | 88 | 113 | 2.0 | 2.0 | 0.00 | 0.00 | 0.00 | 78 | 1013.9 |
| 20260505031954 | 87 | 68 | 2.0 | 3.0 | 0.00 | 0.00 | 0.00 | 79 | 1013.9 |
| 20260505031454 | 86 | 90 | 2.0 | 2.0 | 0.00 | 0.00 | 0.00 | 81 | 1014.2 |
| 20260505030953 | 86 | 68 | 4.0 | 5.0 | 0.00 | 0.00 | 0.00 | 80 | 1014.2 |
| 20260505030453 | 87 | 90 | 3.0 | 3.0 | 0.00 | 0.00 | 0.00 | 79 | 1013.9 |
| 20260505025954 | 86 | 68 | 5.0 | 9.0 | 0.00 | 0.00 | 0.00 | 79 | 1013.9 |
| 20260505025453 | 87 | 90 | 3.0 | 5.0 | 0.00 | 0.00 | 0.00 | 78 | 1013.9 |
| 20260505024954 | 89 | 45 | 2.0 | 3.0 | 0.00 | 0.00 | 0.00 | 78 | 1014.2 |
| 20260505024453 | 86 | 135 | 7.0 | 15.0 | 0.00 | 0.00 | 0.00 | 78 | 1014.2 |
| 20260505023953 | 86 | 68 | 3.0 | 6.0 | 0.00 | 0.00 | 0.00 | 79 | 1013.9 |
| 20260505023453 | 85 | 45 | 7.0 | 9.0 | 0.00 | 0.00 | 0.00 | 79 | 1014.2 |
| 20260505022953 | 85 | 45 | 8.0 | 10.0 | 0.00 | 0.00 | 0.00 | 79 | 1014.2 |
| 20260505022457 | 85 | 135 | 5.0 | 6.0 | 0.00 | 0.00 | 0.00 | 79 | 1014.2 |
| 20260505021953 | 84 | 68 | 6.0 | 7.0 | 0.00 | 0.00 | 0.00 | 80 | 1014.2 |
| 20260505021453 | 82 | 68 | 4.0 | 7.0 | 0.00 | 0.00 | 0.00 | 89 | 1014.6 |
| 20260505020954 | 81 | 68 | 7.0 | 9.0 | 0.00 | 0.00 | 0.00 | 91 | 1014.6 |
| 20260505020454 | 82 | 23 | 11.0 | 15.0 | 0.00 | 0.00 | 0.00 | 87 | 1014.2 |
| 20260505015953 | 85 | 90 | 3.0 | 5.0 | 0.00 | 0.00 | 0.00 | 81 | 1014.2 |
| 20260505015453 | 86 | 68 | 3.0 | 5.0 | 0.00 | 0.00 | 0.00 | 80 | 1014.2 |
| 20260505014953 | 85 | 90 | 5.0 | 7.0 | 0.00 | 0.00 | 0.00 | 82 | 1014.6 |
| 20260505014453 | 85 | 68 | 6.0 | 8.0 | 0.00 | 0.00 | 0.00 | 79 | 1014.2 |
| 20260505013953 | 87 | 90 | 5.0 | 7.0 | 0.00 | 0.00 | 0.00 | 75 | 1014.2 |
| 20260505013453 | 88 | 90 | 8.0 | 10.0 | 0.00 | 0.00 | 0.00 | 73 | 1014.2 |
| 20260505012953 | 90 | 113 | 6.0 | 7.0 | 0.00 | 0.00 | 0.00 | 72 | 1014.2 |
| 20260505012453 | 88 | 68 | 6.0 | 10.0 | 0.00 | 0.00 | 0.00 | 75 | 1014.6 |
| 20260505011953 | 87 | 90 | 2.0 | 3.0 | 0.00 | 0.00 | 0.00 | 76 | 1014.2 |
| 20260505011453 | 87 | 90 | 3.0 | 4.0 | 0.00 | 0.00 | 0.00 | 76 | 1014.2 |
| 20260505010954 | 87 | 113 | 3.0 | 4.0 | 0.00 | 0.00 | 0.00 | 76 | 1014.2 |
| 20260505010453 | 89 | 113 | 5.0 | 6.0 | 0.00 | 0.00 | 0.00 | 72 | 1014.2 |
| 20260505005954 | 88 | 90 | 9.0 | 10.0 | 0.00 | 0.00 | 0.00 | 72 | 1014.2 |
| 20260505005453 | 88 | 45 | 3.0 | 4.0 | 0.00 | 0.00 | 0.00 | 73 | 1014.6 |
| 20260505004953 | 88 | 45 | 4.0 | 7.0 | 0.00 | 0.00 | 0.00 | 75 | 1014.6 |
| 20260505004453 | 88 | 90 | 8.0 | 12.0 | 0.00 | 0.00 | 0.00 | 72 | 1014.6 |
| 20260505003956 | 89 | 113 | 3.0 | 4.0 | 0.00 | 0.00 | 0.00 | 72 | 1014.6 |
| 20260505003453 | 88 | 90 | 5.0 | 6.0 | 0.00 | 0.00 | 0.00 | 74 | 1014.2 |
| 20260505002953 | 87 | 68 | 6.0 | 9.0 | 0.00 | 0.00 | 0.00 | 74 | 1014.2 |
| 20260505002454 | 88 | 135 | 3.0 | 5.0 | 0.00 | 0.00 | 0.00 | 74 | 1014.2 |
| 20260505001953 | 87 | 68 | 8.0 | 11.0 | 0.00 | 0.00 | 0.00 | 74 | 1014.2 |
| 20260505001453 | 87 | 68 | 6.0 | 8.0 | 0.00 | 0.00 | 0.00 | 75 | 1014.2 |
| 20260505000954 | 88 | 113 | 5.0 | 8.0 | 0.00 | 0.00 | 0.00 | 76 | 1014.6 |
| 20260505000453 | 87 | 68 | 6.0 | 10.0 | 0.00 | 0.00 | 0.00 | 77 | 1014.2 |
| 20260504235954 | 86 | 68 | 5.0 | 7.0 | 0.00 | 0.00 | 0.00 | 76 | 1014.2 |
| 20260504235453 | 84 | 113 | 3.0 | 5.0 | 0.00 | 0.00 | 0.00 | 81 | 1014.2 |
| 20260504234954 | 86 | 113 | 4.0 | 5.0 | 0.00 | 0.00 | 0.00 | 78 | 1014.2 |
| 20260504234453 | 86 | 90 | 8.0 | 10.0 | 0.00 | 0.00 | 0.00 | 77 | 1014.2 |
| 20260504233956 | 85 | 68 | 5.0 | 7.0 | 0.00 | 0.00 | 0.00 | 79 | 1014.2 |
| 20260504233453 | 84 | 90 | 9.0 | 10.0 | 0.00 | 0.00 | 0.00 | 80 | 1014.2 |
| 20260504232954 | 84 | 90 | 3.0 | 5.0 | 0.00 | 0.00 | 0.00 | 81 | 1014.2 |
| 20260504232453 | 85 | 68 | 3.0 | 4.0 | 0.00 | 0.00 | 0.00 | 79 | 1014.2 |
| 20260504231953 | 85 | 68 | 4.0 | 7.0 | 0.00 | 0.00 | 0.00 | 78 | 1014.2 |
| 20260504231453 | 86 | 90 | 4.0 | 7.0 | 0.00 | 0.00 | 0.00 | 78 | 1013.9 |
| 20260504230953 | 86 | 90 | 3.0 | 3.0 | 0.00 | 0.00 | 0.00 | 76 | 1014.2 |
| 20260504230454 | 85 | 90 | 4.0 | 5.0 | 0.00 | 0.00 | 0.00 | 77 | 1013.9 |
| 20260504225953 | 85 | 45 | 3.0 | 4.0 | 0.00 | 0.00 | 0.00 | 77 | 1013.9 |
| 20260504225453 | 85 | 68 | 3.0 | 4.0 | 0.00 | 0.00 | 0.00 | 77 | 1013.9 |
| 20260504224953 | 85 | 68 | 1.0 | 3.0 | 0.00 | 0.00 | 0.00 | 78 | 1013.5 |
| 20260504224453 | 83 | 90 | 3.0 | 3.0 | 0.00 | 0.00 | 0.00 | 80 | 1013.9 |
| 20260504223954 | 83 | 68 | 8.0 | 10.0 | 0.00 | 0.00 | 0.00 | 80 | 1013.5 |
| 20260504223453 | 83 | 113 | 4.0 | 5.0 | 0.00 | 0.00 | 0.00 | 81 | 1013.5 |
| 20260504222953 | 82 | 113 | 1.0 | 2.0 | 0.00 | 0.00 | 0.00 | 82 | 1013.5 |
| 20260504222454 | 81 | 45 | 1.0 | 2.0 | 0.00 | 0.00 | 0.00 | 84 | 1013.5 |
| 20260504221954 | 80 | 68 | 2.0 | 3.0 | 0.00 | 0.00 | 0.00 | 87 | 1013.9 |
| 20260504221453 | 80 | 248 | 0.0 | 2.0 | 0.00 | 0.00 | 0.00 | 87 | 1013.5 |
| 20260504220505 | 81 | 113 | 1.0 | 2.0 | 0.00 | 0.00 | 0.00 | 83 | 1013.5 |
| 20260504215954 | 81 | 45 | 4.0 | 7.0 | 0.00 | 0.00 | 0.00 | 82 | 1013.5 |
| 20260504215454 | 81 | 68 | 0.0 | 1.0 | 0.00 | 0.00 | 0.00 | 82 | 1013.9 |
| 20260504214954 | 81 | 113 | 4.0 | 6.0 | 0.00 | 0.00 | 0.00 | 82 | 1013.5 |
| 20260504214453 | 81 | 68 | 5.0 | 6.0 | 0.00 | 0.00 | 0.00 | 81 | 1013.5 |
| 20260504213953 | 81 | 90 | 6.0 | 7.0 | 0.00 | 0.00 | 0.00 | 82 | 1013.5 |
| 20260504213455 | 81 | 68 | 1.0 | 2.0 | 0.00 | 0.00 | 0.00 | 82 | 1013.5 |
| 20260504212953 | 81 | 68 | 0.0 | 1.0 | 0.00 | 0.00 | 0.00 | 82 | 1013.5 |
| 20260504212453 | 81 | 45 | 4.0 | 4.0 | 0.00 | 0.00 | 0.00 | 82 | 1013.2 |
| 20260504211954 | 80 | 90 | 2.0 | 2.0 | 0.00 | 0.00 | 0.00 | 83 | 1013.2 |
| 20260504211453 | 80 | 23 | 3.0 | 4.0 | 0.00 | 0.00 | 0.00 | 83 | 1013.2 |
| 20260504210953 | 80 | 68 | 4.0 | 5.0 | 0.00 | 0.00 | 0.00 | 83 | 1013.2 |
| 20260504210454 | 80 | 68 | 3.0 | 4.0 | 0.00 | 0.00 | 0.00 | 83 | 1013.2 |
| 20260504205954 | 80 | 113 | 2.0 | 3.0 | 0.00 | 0.00 | 0.00 | 83 | 1013.2 |
| 20260504205453 | 80 | 90 | 3.0 | 4.0 | 0.00 | 0.00 | 0.00 | 83 | 1013.2 |
| 20260504204953 | 80 | 68 | 3.0 | 4.0 | 0.00 | 0.00 | 0.00 | 83 | 1013.2 |
| 20260504204454 | 81 | 113 | 4.0 | 5.0 | 0.00 | 0.00 | 0.00 | 82 | 1012.9 |
| 20260504203953 | 81 | 68 | 4.0 | 7.0 | 0.00 | 0.00 | 0.00 | 82 | 1012.9 |
| 20260504203454 | 80 | 113 | 5.0 | 6.0 | 0.00 | 0.00 | 0.00 | 82 | 1012.9 |
| 20260504202953 | 81 | 90 | 7.0 | 7.0 | 0.00 | 0.00 | 0.00 | 82 | 1012.9 |
| 20260504202453 | 81 | 68 | 7.0 | 10.0 | 0.00 | 0.00 | 0.00 | 81 | 1012.9 |
| 20260504201953 | 80 | 68 | 4.0 | 6.0 | 0.00 | 0.00 | 0.00 | 83 | 1012.9 |
| 20260504201454 | 80 | 45 | 2.0 | 2.0 | 0.00 | 0.00 | 0.00 | 82 | 1012.9 |
| 20260504200955 | 80 | 68 | 3.0 | 4.0 | 0.00 | 0.00 | 0.00 | 82 | 1012.9 |
| 20260504200455 | 80 | 68 | 5.0 | 6.0 | 0.00 | 0.00 | 0.00 | 82 | 1012.9 |
| 20260504195954 | 79 | 68 | 5.0 | 7.0 | 0.00 | 0.00 | 0.00 | 83 | 1012.9 |
| 20260504195453 | 79 | 90 | 4.0 | 6.0 | 0.00 | 0.00 | 0.00 | 83 | 1013.2 |
| 20260504194954 | 79 | 90 | 4.0 | 5.0 | 0.00 | 0.00 | 0.00 | 83 | 1013.2 |
| 20260504194455 | 80 | 45 | 4.0 | 5.0 | 0.00 | 0.00 | 0.00 | 82 | 1012.9 |
| 20260504193953 | 80 | 45 | 5.0 | 7.0 | 0.00 | 0.00 | 0.00 | 81 | 1012.9 |
| 20260504193453 | 80 | 90 | 5.0 | 7.0 | 0.00 | 0.00 | 0.00 | 82 | 1012.9 |
| 20260504192953 | 80 | 45 | 4.0 | 6.0 | 0.00 | 0.00 | 0.00 | 81 | 1013.5 |
| 20260504192453 | 80 | 45 | 7.0 | 8.0 | 0.00 | 0.00 | 0.00 | 82 | 1013.2 |
| 20260504191956 | 80 | 90 | 6.0 | 9.0 | 0.00 | 0.00 | 0.00 | 81 | 1012.9 |
| 20260504191453 | 81 | 68 | 8.0 | 10.0 | 0.00 | 0.00 | 0.00 | 80 | 1012.9 |
| 20260504190953 | 81 | 45 | 4.0 | 6.0 | 0.00 | 0.00 | 0.00 | 80 | 1013.2 |
| 20260504190454 | 81 | 68 | 5.0 | 9.0 | 0.00 | 0.00 | 0.00 | 80 | 1012.9 |
| 20260504185953 | 80 | 68 | 5.0 | 6.0 | 0.00 | 0.00 | 0.00 | 81 | 1012.9 |
| 20260504185453 | 80 | 90 | 5.0 | 7.0 | 0.00 | 0.00 | 0.00 | 81 | 1013.2 |
| 20260504184953 | 81 | 68 | 6.0 | 7.0 | 0.00 | 0.00 | 0.00 | 79 | 1013.2 |
| 20260504184454 | 81 | 113 | 6.0 | 7.0 | 0.00 | 0.00 | 0.00 | 80 | 1013.2 |
| 20260504183953 | 80 | 135 | 4.0 | 6.0 | 0.00 | 0.00 | 0.00 | 80 | 1013.2 |
| 20260504183453 | 80 | 23 | 5.0 | 6.0 | 0.00 | 0.00 | 0.00 | 80 | 1013.2 |
| 20260504182953 | 80 | 45 | 5.0 | 6.0 | 0.00 | 0.00 | 0.00 | 79 | 1013.5 |
| 20260504182453 | 81 | 45 | 6.0 | 7.0 | 0.00 | 0.00 | 0.00 | 79 | 1013.5 |
| 20260504181954 | 80 | 113 | 5.0 | 7.0 | 0.00 | 0.00 | 0.00 | 79 | 1013.5 |
| 20260504181454 | 80 | 68 | 7.0 | 8.0 | 0.00 | 0.00 | 0.00 | 79 | 1013.5 |
| 20260504180953 | 80 | 90 | 3.0 | 5.0 | 0.00 | 0.00 | 0.00 | 78 | 1013.5 |
| 20260504180454 | 81 | 45 | 4.0 | 5.0 | 0.00 | 0.00 | 0.00 | 77 | 1013.5 |
| 20260504175953 | 81 | 68 | 3.0 | 4.0 | 0.00 | 0.00 | 0.00 | 77 | 1013.2 |
| 20260504175453 | 81 | 68 | 3.0 | 4.0 | 0.00 | 0.00 | 0.00 | 78 | 1013.2 |
| 20260504174955 | 81 | 68 | 6.0 | 7.0 | 0.00 | 0.00 | 0.00 | 78 | 1013.5 |
| 20260504174453 | 81 | 68 | 5.0 | 8.0 | 0.00 | 0.00 | 0.00 | 79 | 1013.5 |
| 20260504173953 | 80 | 68 | 6.0 | 7.0 | 0.00 | 0.00 | 0.00 | 79 | 1013.5 |
| 20260504173454 | 81 | 45 | 6.0 | 7.0 | 0.00 | 0.00 | 0.00 | 80 | 1013.5 |
| 20260504172954 | 80 | 45 | 5.0 | 6.0 | 0.00 | 0.00 | 0.00 | 82 | 1013.5 |
| 20260504172453 | 80 | 68 | 3.0 | 5.0 | 0.00 | 0.00 | 0.00 | 82 | 1013.5 |
| 20260504171953 | 80 | 68 | 4.0 | 5.0 | 0.00 | 0.00 | 0.00 | 82 | 1013.9 |
| 20260504171453 | 80 | 68 | 4.0 | 5.0 | 0.00 | 0.00 | 0.00 | 82 | 1013.9 |
| 20260504170953 | 80 | 68 | 6.0 | 8.0 | 0.00 | 0.00 | 0.00 | 81 | 1013.9 |
| 20260504170454 | 80 | 68 | 3.0 | 5.0 | 0.00 | 0.00 | 0.00 | 81 | 1013.9 |
| 20260504150953 | 82 | 45 | 7.0 | 7.0 | 0.00 | 0.00 | 0.00 | 79 | 1014.9 |
| 20260504150453 | 81 | 68 | 5.0 | 7.0 | 0.00 | 0.00 | 0.00 | 79 | 1014.9 |
| 20260504140953 | 78 | 45 | 1.0 | 2.0 | 0.00 | 0.00 | 0.00 | 89 | 1015.2 |
| 20260504140456 | 79 | 68 | 1.0 | 2.0 | 0.00 | 0.00 | 0.00 | 88 | 1014.9 |
| 20260504130453 | 80 | 45 | 2.0 | 2.0 | 0.00 | 0.00 | 0.00 | 85 | 1014.6 |
| 20260504110453 | 82 | 68 | 4.0 | 6.0 | 0.00 | 0.00 | 0.00 | 85 | 1013.9 |
| 20260504100453 | 83 | 68 | 8.0 | 10.0 | 0.00 | 0.00 | 0.00 | 82 | 1012.9 |
| 20260504081953 | 87 | 45 | 12.0 | 19.0 | 0.00 | 0.00 | 0.00 | 73 | 1012.2 |
| 20260504081453 | 87 | 113 | 9.0 | 12.0 | 0.00 | 0.00 | 0.00 | 74 | 1012.5 |
| 20260504080953 | 87 | 68 | 7.0 | 10.0 | 0.00 | 0.00 | 0.00 | 74 | 1012.2 |